User: anonymous   Login
Location: Oshawa
(43.9000°N, 78.8670°W)
Time: 07:40:18
(UTC-04:00)
Language:

SPOT 5 - Orbit

View from above orbital plane
View from above orbital plane
View from above satellite
View from above satellite

Ground track
Ground track

The orbit data is extracted from the following two-line orbital elements,

1 27421U 02021A   18292.09708684  .00000099  00000-0  33625-4 0  9996
2 27421  98.3444 359.1585 0134436 270.5193  88.0621 14.51955358856611
Epoch (UTC): 19 October 2018 02:19:48
Eccentricity: 0.0134436
inclination: 98.3444°
perigee height: 624 km
apogee height: 814 km
right ascension of ascending node: 359.1585°
argument of perigee: 270.5193°
revolutions per day: 14.51955358
mean anomaly at epoch: 88.0621°
orbit number at epoch: 85661

The dashed part of the orbit path shows where the satellite is in the earth's shadow,  

DLR